Location: ???????
(55.2903°N, 39.1554°E)
Time: 05:39:39
(UTC+00:00)

Cosmos 1340 Rocket - Visible Passes

Search period start: 16 July 2024 00:00
Search period end: 26 July 2024 00:00
Orbit: 505 x 542 km, 81.2° (Epoch: 15 July)

Date Brightness Start Highest point End Pass type
(mag) Time Alt. Az. Time Alt. Az. Time Alt. Az.
16 Jul 3.2 21:50:07 10° N 21:53:56 56° ENE 21:56:56 16° SSE visible
16 Jul 4.5 23:26:55 10° NW 23:29:37 18° W 23:32:05 11° SW visible
17 Jul 3.4 21:37:34 10° N 21:41:22 51° ENE 21:44:15 16° SE visible
17 Jul 4.4 23:14:15 10° NW 23:17:06 20° W 23:19:25 12° SW visible
18 Jul 3.5 21:25:02 10° N 21:28:48 47° ENE 21:31:36 17° SE visible
18 Jul 4.3 23:01:34 10° NW 23:04:34 21° W 23:06:45 14° SW visible
19 Jul 3.6 21:12:28 10° N 21:16:12 43° ENE 21:18:56 17° SE visible
19 Jul 4.3 22:48:55 10° NW 22:52:02 23° W 22:54:06 16° SW visible
20 Jul 3.7 20:59:54 10° N 21:03:36 39° ENE 21:06:17 17° SE visible
20 Jul 4.2 22:36:15 10° NW 22:39:29 25° W 22:41:26 17° SW visible
21 Jul 3.9 20:47:20 10° N 20:50:58 36° ENE 20:53:38 16° SE visible
21 Jul 4.1 22:23:34 10° NNW 22:26:55 27° W 22:28:48 19° SW visible
22 Jul 4.0 20:34:45 10° N 20:38:21 34° ENE 20:41:00 16° SE visible
22 Jul 3.9 22:10:54 10° NNW 22:14:20 30° W 22:16:09 20° SW visible
23 Jul 4.1 20:22:09 10° N 20:25:42 31° ENE 20:28:21 15° ESE visible
23 Jul 3.8 21:58:13 10° NNW 22:01:44 32° W 22:03:31 22° SW visible
24 Jul 4.2 20:09:34 10° N 20:13:02 29° ENE 20:15:43 14° ESE visible
24 Jul 3.7 21:45:32 10° NNW 21:49:08 35° W 21:50:53 23° SW visible
25 Jul 4.3 19:56:58 10° N 20:00:22 27° ENE 20:03:05 14° ESE visible
25 Jul 3.6 21:32:50 10° NNW 21:36:30 39° W 21:38:15 25° SSW visible
